| time (UTC) | temp F | wind direction | speed MPH | gust MPH | rain 1hr in | rain 24hr in | rain mn in | humidity % | barometer mb |
| 20260510013311 | 98 | 286 | 4.0 | 8.0 | 0.00 | 0.00 | 0.00 | 10 | 1007.9 |
| 20260510012811 | 98 | 273 | 1.0 | 8.0 | 0.00 | 0.00 | 0.00 | 10 | 1007.9 |
| 20260510012310 | 99 | 326 | 3.0 | 7.0 | 0.00 | 0.00 | 0.00 | 10 | 1007.8 |
| 20260510011810 | 99 | 289 | 0.0 | 7.0 | 0.00 | 0.00 | 0.00 | 10 | 1007.7 |
| 20260510010810 | 99 | 302 | 4.0 | 8.0 | 0.00 | 0.00 | 0.00 | 10 | 1007.8 |
| 20260510010310 | 99 | 306 | 6.0 | 8.0 | 0.00 | 0.00 | 0.00 | 10 | 1007.8 |
| 20260510005810 | 100 | 297 | 1.0 | 5.0 | 0.00 | 0.00 | 0.00 | 9 | 1007.9 |
| 20260510005310 | 100 | 219 | 0.0 | 7.0 | 0.00 | 0.00 | 0.00 | 10 | 1007.5 |
| 20260510004810 | 100 | 283 | 2.0 | 7.0 | 0.00 | 0.00 | 0.00 | 9 | 1007.5 |
| 20260510003810 | 101 | 293 | 3.0 | 4.0 | 0.00 | 0.00 | 0.00 | 9 | 1007.6 |
| 20260510003309 | 100 | 251 | 1.0 | 6.0 | 0.00 | 0.00 | 0.00 | 9 | 1007.7 |
| 20260510002809 | 100 | 270 | 1.0 | 6.0 | 0.00 | 0.00 | 0.00 | 9 | 1007.6 |
| 20260510002309 | 100 | 291 | 2.0 | 6.0 | 0.00 | 0.00 | 0.00 | 9 | 1007.7 |
| 20260510001809 | 100 | 290 | 2.0 | 6.0 | 0.00 | 0.00 | 0.00 | 9 | 1007.7 |
| 20260510001308 | 101 | 288 | 2.0 | 6.0 | 0.00 | 0.00 | 0.00 | 9 | 1007.8 |
| 20260510000808 | 101 | 284 | 2.0 | 11.0 | 0.00 | 0.00 | 0.00 | 9 | 1007.8 |
| 20260509234808 | 101 | 7 | 2.0 | 8.0 | 0.00 | 0.00 | 0.00 | 9 | 1008.2 |
| 20260509234308 | 102 | 281 | 3.0 | 7.0 | 0.00 | 0.00 | 0.00 | 9 | 1008.0 |
| 20260509233808 | 101 | 209 | 0.0 | 11.0 | 0.00 | 0.00 | 0.00 | 10 | 1008.0 |
| 20260509233308 | 101 | 263 | 4.0 | 11.0 | 0.00 | 0.00 | 0.00 | 9 | 1008.2 |
| 20260509232807 | 101 | 278 | 2.0 | 6.0 | 0.00 | 0.00 | 0.00 | 9 | 1008.1 |
| 20260509232307 | 101 | 266 | 3.0 | 8.0 | 0.00 | 0.00 | 0.00 | 9 | 1008.2 |
| 20260509231807 | 102 | 282 | 3.0 | 11.0 | 0.00 | 0.00 | 0.00 | 9 | 1008.3 |
| 20260509231307 | 101 | 240 | 2.0 | 11.0 | 0.00 | 0.00 | 0.00 | 9 | 1008.2 |
| 20260509230807 | 101 | 307 | 1.0 | 7.0 | 0.00 | 0.00 | 0.00 | 9 | 1008.3 |
| 20260509230306 | 101 | 282 | 2.0 | 6.0 | 0.00 | 0.00 | 0.00 | 10 | 1008.3 |
| 20260509225806 | 101 | 274 | 0.0 | 12.0 | 0.00 | 0.00 | 0.00 | 10 | 1008.5 |
| 20260509225306 | 101 | 247 | 5.0 | 12.0 | 0.00 | 0.00 | 0.00 | 9 | 1008.6 |
| 20260509224806 | 101 | 283 | 6.0 | 10.0 | 0.00 | 0.00 | 0.00 | 9 | 1008.7 |
| 20260509224306 | 100 | 253 | 5.0 | 11.0 | 0.00 | 0.00 | 0.00 | 10 | 1008.6 |
| 20260509223806 | 100 | 5 | 3.0 | 11.0 | 0.00 | 0.00 | 0.00 | 9 | 1008.6 |
| 20260509223305 | 101 | 289 | 7.0 | 9.0 | 0.00 | 0.00 | 0.00 | 9 | 1008.7 |
| 20260509222806 | 101 | 309 | 4.0 | 8.0 | 0.00 | 0.00 | 0.00 | 9 | 1008.8 |
| 20260509222307 | 102 | 264 | 3.0 | 8.0 | 0.00 | 0.00 | 0.00 | 9 | 1008.9 |
| 20260509221805 | 101 | 272 | 2.0 | 11.0 | 0.00 | 0.00 | 0.00 | 10 | 1008.8 |
| 20260509221305 | 101 | 192 | 2.0 | 11.0 | 0.00 | 0.00 | 0.00 | 10 | 1008.9 |
| 20260509220805 | 101 | 252 | 2.0 | 8.0 | 0.00 | 0.00 | 0.00 | 10 | 1009.0 |
| 20260509220305 | 100 | 229 | 4.0 | 8.0 | 0.00 | 0.00 | 0.00 | 10 | 1009.0 |
| 20260509215805 | 100 | 295 | 3.0 | 9.0 | 0.00 | 0.00 | 0.00 | 10 | 1009.2 |
| 20260509215306 | 100 | 279 | 4.0 | 9.0 | 0.00 | 0.00 | 0.00 | 10 | 1009.3 |
| 20260509214805 | 100 | 309 | 4.0 | 11.0 | 0.00 | 0.00 | 0.00 | 11 | 1009.4 |
| 20260509214304 | 100 | 286 | 2.0 | 11.0 | 0.00 | 0.00 | 0.00 | 10 | 1009.5 |
| 20260509213804 | 100 | 272 | 3.0 | 6.0 | 0.00 | 0.00 | 0.00 | 10 | 1009.6 |
| 20260509213304 | 101 | 304 | 3.0 | 10.0 | 0.00 | 0.00 | 0.00 | 10 | 1009.9 |
| 20260509212804 | 100 | 307 | 3.0 | 10.0 | 0.00 | 0.00 | 0.00 | 10 | 1009.9 |
| 20260509211804 | 100 | 295 | 2.0 | 9.0 | 0.00 | 0.00 | 0.00 | 11 | 1009.9 |
| 20260509211303 | 100 | 293 | 6.0 | 9.0 | 0.00 | 0.00 | 0.00 | 11 | 1010.1 |
| 20260509210803 | 100 | 295 | 4.0 | 7.0 | 0.00 | 0.00 | 0.00 | 11 | 1010.2 |
| 20260509205306 | 99 | 312 | 2.0 | 8.0 | 0.00 | 0.00 | 0.00 | 11 | 1010.1 |
| 20260509204803 | 99 | 287 | 2.0 | 10.0 | 0.00 | 0.00 | 0.00 | 11 | 1010.4 |
| 20260509204303 | 99 | 299 | 2.0 | 10.0 | 0.00 | 0.00 | 0.00 | 11 | 1010.4 |
| 20260509203803 | 99 | 307 | 1.0 | 8.0 | 0.00 | 0.00 | 0.00 | 12 | 1010.4 |
| 20260509203302 | 99 | 304 | 5.0 | 8.0 | 0.00 | 0.00 | 0.00 | 11 | 1010.6 |
| 20260509202802 | 98 | 281 | 5.0 | 8.0 | 0.00 | 0.00 | 0.00 | 11 | 1010.7 |
| 20260509202306 | 99 | 351 | 0.0 | 8.0 | 0.00 | 0.00 | 0.00 | 11 | 1010.7 |
| 20260509201802 | 99 | 283 | 2.0 | 8.0 | 0.00 | 0.00 | 0.00 | 11 | 1010.9 |
| 20260509201302 | 99 | 295 | 3.0 | 6.0 | 0.00 | 0.00 | 0.00 | 12 | 1010.8 |
| 20260509200802 | 99 | 296 | 3.0 | 6.0 | 0.00 | 0.00 | 0.00 | 11 | 1011.0 |
| 20260509200301 | 99 | 245 | 4.0 | 8.0 | 0.00 | 0.00 | 0.00 | 11 | 1011.1 |
| 20260509195802 | 98 | 26 | 3.0 | 8.0 | 0.00 | 0.00 | 0.00 | 11 | 1011.2 |
| 20260509195301 | 98 | 158 | 1.0 | 8.0 | 0.00 | 0.00 | 0.00 | 12 | 1011.3 |
| 20260509194801 | 98 | 174 | 3.0 | 6.0 | 0.00 | 0.00 | 0.00 | 12 | 1011.4 |
| 20260509194301 | 98 | 219 | 2.0 | 6.0 | 0.00 | 0.00 | 0.00 | 12 | 1011.4 |
| 20260509193800 | 97 | 278 | 0.0 | 5.0 | 0.00 | 0.00 | 0.00 | 12 | 1011.4 |
| 20260509193300 | 98 | 262 | 2.0 | 3.0 | 0.00 | 0.00 | 0.00 | 12 | 1011.5 |
| 20260509192300 | 97 | 20 | 0.0 | 6.0 | 0.00 | 0.00 | 0.00 | 12 | 1011.8 |
| 20260509191800 | 97 | 276 | 5.0 | 6.0 | 0.00 | 0.00 | 0.00 | 12 | 1011.7 |
| 20260509191300 | 97 | 293 | 3.0 | 5.0 | 0.00 | 0.00 | 0.00 | 12 | 1011.9 |
| 20260509190800 | 97 | 223 | 2.0 | 4.0 | 0.00 | 0.00 | 0.00 | 12 | 1011.9 |
| 20260509185759 | 96 | 288 | 1.0 | 5.0 | 0.00 | 0.00 | 0.00 | 13 | 1011.8 |
| 20260509185259 | 95 | 257 | 3.0 | 7.0 | 0.00 | 0.00 | 0.00 | 13 | 1012.1 |
| 20260509184759 | 95 | 307 | 3.0 | 7.0 | 0.00 | 0.00 | 0.00 | 13 | 1012.0 |
| 20260509184259 | 95 | 297 | 4.0 | 5.0 | 0.00 | 0.00 | 0.00 | 12 | 1012.1 |
| 20260509183259 | 95 | 192 | 3.0 | 6.0 | 0.00 | 0.00 | 0.00 | 13 | 1012.2 |
| 20260509182759 | 95 | 289 | 1.0 | 6.0 | 0.00 | 0.00 | 0.00 | 13 | 1012.4 |
| 20260509182259 | 95 | 240 | 3.0 | 6.0 | 0.00 | 0.00 | 0.00 | 13 | 1012.4 |
| 20260509181758 | 94 | 301 | 2.0 | 5.0 | 0.00 | 0.00 | 0.00 | 13 | 1012.4 |
| 20260509180758 | 94 | 151 | 0.0 | 6.0 | 0.00 | 0.00 | 0.00 | 14 | 1012.6 |
| 20260509180258 | 93 | 113 | 2.0 | 6.0 | 0.00 | 0.00 | 0.00 | 14 | 1012.7 |
| 20260509175758 | 93 | 300 | 0.0 | 7.0 | 0.00 | 0.00 | 0.00 | 14 | 1012.7 |
| 20260509174257 | 93 | 225 | 3.0 | 6.0 | 0.00 | 0.00 | 0.00 | 14 | 1012.8 |
| 20260509172757 | 92 | 312 | 2.0 | 7.0 | 0.00 | 0.00 | 0.00 | 14 | 1012.7 |
| 20260509172257 | 92 | 165 | 6.0 | 7.0 | 0.00 | 0.00 | 0.00 | 14 | 1012.6 |
| 20260509171756 | 92 | 105 | 3.0 | 7.0 | 0.00 | 0.00 | 0.00 | 14 | 1012.7 |
| 20260509171256 | 92 | 181 | 1.0 | 7.0 | 0.00 | 0.00 | 0.00 | 15 | 1012.7 |
| 20260509170757 | 91 | 185 | 3.0 | 7.0 | 0.00 | 0.00 | 0.00 | 15 | 1012.8 |
| 20260509170256 | 92 | 196 | 4.0 | 7.0 | 0.00 | 0.00 | 0.00 | 15 | 1012.7 |
| 20260509165756 | 91 | 131 | 1.0 | 4.0 | 0.00 | 0.00 | 0.00 | 15 | 1012.9 |
| 20260509165257 | 91 | 137 | 4.0 | 7.0 | 0.00 | 0.00 | 0.00 | 15 | 1012.8 |
| 20260509164756 | 90 | 102 | 1.0 | 7.0 | 0.00 | 0.00 | 0.00 | 15 | 1012.8 |
| 20260509164255 | 90 | 155 | 3.0 | 6.0 | 0.00 | 0.00 | 0.00 | 16 | 1012.8 |
| 20260509163756 | 90 | 156 | 4.0 | 6.0 | 0.00 | 0.00 | 0.00 | 16 | 1012.8 |
| 20260509162755 | 89 | 134 | 2.0 | 7.0 | 0.00 | 0.00 | 0.00 | 16 | 1012.6 |
| 20260509162255 | 89 | 110 | 5.0 | 8.0 | 0.00 | 0.00 | 0.00 | 16 | 1012.6 |
| 20260509161755 | 89 | 153 | 4.0 | 8.0 | 0.00 | 0.00 | 0.00 | 17 | 1012.6 |
| 20260509161255 | 89 | 152 | 2.0 | 7.0 | 0.00 | 0.00 | 0.00 | 17 | 1012.5 |
| 20260509160754 | 89 | 123 | 2.0 | 7.0 | 0.00 | 0.00 | 0.00 | 17 | 1012.6 |
| 20260509153754 | 87 | 112 | 6.0 | 7.0 | 0.00 | 0.00 | 0.00 | 18 | 1012.8 |
| 20260509153253 | 87 | 123 | 5.0 | 7.0 | 0.00 | 0.00 | 0.00 | 19 | 1012.9 |
| 20260509152754 | 87 | 122 | 3.0 | 7.0 | 0.00 | 0.00 | 0.00 | 19 | 1012.9 |
| 20260509152253 | 86 | 205 | 6.0 | 7.0 | 0.00 | 0.00 | 0.00 | 20 | 1012.7 |
| 20260509151753 | 85 | 110 | 3.0 | 7.0 | 0.00 | 0.00 | 0.00 | 19 | 1012.6 |
| 20260509151253 | 85 | 96 | 5.0 | 7.0 | 0.00 | 0.00 | 0.00 | 20 | 1012.6 |
| 20260509150253 | 85 | 155 | 2.0 | 7.0 | 0.00 | 0.00 | 0.00 | 20 | 1012.6 |
| 20260509145253 | 84 | 90 | 2.0 | 7.0 | 0.00 | 0.00 | 0.00 | 21 | 1012.8 |
| 20260509144252 | 84 | 155 | 2.0 | 7.0 | 0.00 | 0.00 | 0.00 | 21 | 1012.8 |
| 20260509143752 | 83 | 134 | 2.0 | 8.0 | 0.00 | 0.00 | 0.00 | 21 | 1012.7 |
| 20260509142751 | 82 | 138 | 3.0 | 8.0 | 0.00 | 0.00 | 0.00 | 22 | 1012.7 |
| 20260509141752 | 81 | 113 | 4.0 | 6.0 | 0.00 | 0.00 | 0.00 | 22 | 1012.3 |
| 20260509141251 | 80 | 103 | 3.0 | 6.0 | 0.00 | 0.00 | 0.00 | 23 | 1012.2 |
| 20260509140751 | 80 | 156 | 2.0 | 7.0 | 0.00 | 0.00 | 0.00 | 23 | 1012.2 |
| 20260509140251 | 79 | 122 | 3.0 | 7.0 | 0.00 | 0.00 | 0.00 | 24 | 1012.0 |
| 20260509135751 | 78 | 123 | 3.0 | 6.0 | 0.00 | 0.00 | 0.00 | 24 | 1012.1 |
| 20260509135251 | 77 | 120 | 2.0 | 6.0 | 0.00 | 0.00 | 0.00 | 25 | 1012.6 |
| 20260509134750 | 77 | 102 | 2.0 | 6.0 | 0.00 | 0.00 | 0.00 | 25 | 1012.6 |
| 20260509134250 | 76 | 118 | 3.0 | 6.0 | 0.00 | 0.00 | 0.00 | 24 | 1012.4 |
| 20260509133751 | 75 | 93 | 3.0 | 5.0 | 0.00 | 0.00 | 0.00 | 25 | 1012.5 |
| 20260509133250 | 75 | 113 | 3.0 | 6.0 | 0.00 | 0.00 | 0.00 | 26 | 1012.4 |
| 20260509132750 | 74 | 113 | 3.0 | 6.0 | 0.00 | 0.00 | 0.00 | 26 | 1012.1 |
| 20260509132250 | 72 | 124 | 4.0 | 5.0 | 0.00 | 0.00 | 0.00 | 27 | 1012.0 |
| 20260509131750 | 71 | 130 | 3.0 | 4.0 | 0.00 | 0.00 | 0.00 | 29 | 1012.0 |
| 20260509131250 | 71 | 105 | 1.0 | 3.0 | 0.00 | 0.00 | 0.00 | 29 | 1012.0 |
| 20260509130749 | 69 | 111 | 3.0 | 3.0 | 0.00 | 0.00 | 0.00 | 30 | 1011.8 |
| 20260509130249 | 69 | 110 | 1.0 | 2.0 | 0.00 | 0.00 | 0.00 | 31 | 1011.8 |
| 20260509125749 | 69 | 141 | 0.0 | 2.0 | 0.00 | 0.00 | 0.00 | 31 | 1011.7 |
| 20260509125249 | 69 | 94 | 1.0 | 2.0 | 0.00 | 0.00 | 0.00 | 31 | 1011.8 |
| 20260509124749 | 68 | 117 | 1.0 | 2.0 | 0.00 | 0.00 | 0.00 | 31 | 1011.7 |
| 20260509124249 | 69 | 113 | 0.0 | 1.0 | 0.00 | 0.00 | 0.00 | 31 | 1011.6 |
| 20260509123749 | 69 | 115 | 0.0 | 1.0 | 0.00 | 0.00 | 0.00 | 30 | 1011.5 |
| 20260509122248 | 70 | 105 | 1.0 | 4.0 | 0.00 | 0.00 | 0.00 | 29 | 1011.4 |
| 20260509121248 | 70 | 95 | 2.0 | 4.0 | 0.00 | 0.00 | 0.00 | 29 | 1011.3 |
| 20260509120747 | 70 | 101 | 0.0 | 3.0 | 0.00 | 0.00 | 0.00 | 29 | 1011.2 |
| 20260509120248 | 71 | 95 | 1.0 | 3.0 | 0.00 | 0.00 | 0.00 | 28 | 1011.2 |
| 20260509115748 | 71 | 114 | 2.0 | 3.0 | 0.00 | 0.00 | 0.00 | 28 | 1011.3 |
| 20260509115247 | 71 | 104 | 2.0 | 3.0 | 0.00 | 0.00 | 0.00 | 28 | 1011.2 |
| 20260509114747 | 71 | 106 | 1.0 | 3.0 | 0.00 | 0.00 | 0.00 | 28 | 1011.2 |
| 20260509114247 | 71 | 120 | 1.0 | 3.0 | 0.00 | 0.00 | 0.00 | 27 | 1011.2 |
| 20260509113747 | 72 | 94 | 1.0 | 3.0 | 0.00 | 0.00 | 0.00 | 28 | 1011.3 |
| 20260509113247 | 72 | 103 | 1.0 | 2.0 | 0.00 | 0.00 | 0.00 | 27 | 1011.3 |
| 20260509112747 | 72 | 97 | 0.0 | 4.0 | 0.00 | 0.00 | 0.00 | 27 | 1011.2 |
| 20260509112247 | 72 | 101 | 1.0 | 4.0 | 0.00 | 0.00 | 0.00 | 27 | 1011.2 |
| 20260509111746 | 71 | 104 | 1.0 | 2.0 | 0.00 | 0.00 | 0.00 | 28 | 1011.1 |
| 20260509111246 | 71 | 81 | 1.0 | 2.0 | 0.00 | 0.00 | 0.00 | 28 | 1011.1 |
| 20260509110746 | 71 | 96 | 2.0 | 3.0 | 0.00 | 0.00 | 0.00 | 28 | 1011.1 |
| 20260509110246 | 71 | 88 | 0.0 | 3.0 | 0.00 | 0.00 | 0.00 | 29 | 1011.0 |
| 20260509105745 | 71 | 104 | 0.0 | 2.0 | 0.00 | 0.00 | 0.00 | 29 | 1011.1 |
| 20260509104745 | 72 | 106 | 0.0 | 2.0 | 0.00 | 0.00 | 0.00 | 28 | 1011.2 |
| 20260509104245 | 72 | 99 | 0.0 | 3.0 | 0.00 | 0.00 | 0.00 | 28 | 1011.1 |
| 20260509103745 | 72 | 108 | 1.0 | 3.0 | 0.00 | 0.00 | 0.00 | 28 | 1011.1 |
| 20260509103245 | 71 | 110 | 1.0 | 2.0 | 0.00 | 0.00 | 0.00 | 28 | 1011.1 |
| 20260509102745 | 71 | 109 | 0.0 | 2.0 | 0.00 | 0.00 | 0.00 | 29 | 1011.0 |
| 20260509102245 | 71 | 86 | 0.0 | 1.0 | 0.00 | 0.00 | 0.00 | 29 | 1011.1 |
| 20260509101814 | 71 | 86 | 0.0 | 1.0 | 0.00 | 0.00 | 0.00 | 30 | 1011.0 |
| 20260509101315 | 71 | 86 | 0.0 | 1.0 | 0.00 | 0.00 | 0.00 | 29 | 1011.0 |
| 20260509100814 | 71 | 86 | 0.0 | 1.0 | 0.00 | 0.00 | 0.00 | 28 | 1011.0 |
| 20260509100314 | 71 | 91 | 0.0 | 1.0 | 0.00 | 0.00 | 0.00 | 30 | 1011.0 |
| 20260509095814 | 71 | 98 | 0.0 | 1.0 | 0.00 | 0.00 | 0.00 | 30 | 1011.1 |
| 20260509094813 | 70 | 98 | 0.0 | 1.0 | 0.00 | 0.00 | 0.00 | 32 | 1010.9 |
| 20260509094314 | 71 | 98 | 0.0 | 1.0 | 0.00 | 0.00 | 0.00 | 32 | 1011.0 |
| 20260509093814 | 70 | 98 | 0.0 | 1.0 | 0.00 | 0.00 | 0.00 | 32 | 1011.0 |
| 20260509093313 | 71 | 113 | 0.0 | 0.0 | 0.00 | 0.00 | 0.00 | 32 | 1011.1 |
| 20260509092813 | 71 | 113 | 0.0 | 1.0 | 0.00 | 0.00 | 0.00 | 30 | 1010.9 |
| 20260509092313 | 72 | 113 | 0.0 | 1.0 | 0.00 | 0.00 | 0.00 | 30 | 1011.0 |
| 20260509091813 | 72 | 113 | 0.0 | 1.0 | 0.00 | 0.00 | 0.00 | 31 | 1011.1 |
| 20260509091313 | 73 | 113 | 0.0 | 0.0 | 0.00 | 0.00 | 0.00 | 29 | 1011.2 |
| 20260509090313 | 72 | 113 | 0.0 | 0.0 | 0.00 | 0.00 | 0.00 | 30 | 1011.2 |
| 20260509085812 | 70 | 113 | 0.0 | 0.0 | 0.00 | 0.00 | 0.00 | 30 | 1011.1 |
| 20260509084812 | 70 | 113 | 0.0 | 0.0 | 0.00 | 0.00 | 0.00 | 33 | 1010.8 |
| 20260509084312 | 70 | 113 | 0.0 | 0.0 | 0.00 | 0.00 | 0.00 | 32 | 1010.8 |
| 20260509083812 | 71 | 113 | 0.0 | 0.0 | 0.00 | 0.00 | 0.00 | 31 | 1010.8 |
| 20260509083312 | 70 | 113 | 0.0 | 0.0 | 0.00 | 0.00 | 0.00 | 33 | 1010.7 |
| 20260509082811 | 71 | 114 | 0.0 | 0.0 | 0.00 | 0.00 | 0.00 | 34 | 1010.9 |
| 20260509082311 | 71 | 113 | 0.0 | 0.0 | 0.00 | 0.00 | 0.00 | 33 | 1010.8 |
| 20260509081811 | 71 | 114 | 0.0 | 0.0 | 0.00 | 0.00 | 0.00 | 33 | 1010.8 |
| 20260509081311 | 71 | 114 | 0.0 | 0.0 | 0.00 | 0.00 | 0.00 | 35 | 1010.8 |
| 20260509080811 | 72 | 113 | 0.0 | 1.0 | 0.00 | 0.00 | 0.00 | 34 | 1010.9 |
| 20260509080311 | 73 | 114 | 0.0 | 1.0 | 0.00 | 0.00 | 0.00 | 31 | 1010.9 |
| 20260509075311 | 73 | 117 | 0.0 | 0.0 | 0.00 | 0.00 | 0.00 | 30 | 1010.7 |
| 20260509074810 | 73 | 124 | 0.0 | 1.0 | 0.00 | 0.00 | 0.00 | 30 | 1010.5 |
| 20260509074310 | 74 | 120 | 0.0 | 1.0 | 0.00 | 0.00 | 0.00 | 30 | 1010.7 |
| 20260509073810 | 74 | 69 | 0.0 | 1.0 | 0.00 | 0.00 | 0.00 | 29 | 1010.8 |
| 20260509073310 | 74 | 76 | 0.0 | 1.0 | 0.00 | 0.00 | 0.00 | 28 | 1010.7 |
| 20260509072309 | 74 | 76 | 1.0 | 1.0 | 0.00 | 0.00 | 0.00 | 30 | 1010.9 |
| 20260509071810 | 74 | 78 | 0.0 | 1.0 | 0.00 | 0.00 | 0.00 | 30 | 1010.8 |
| 20260509071309 | 74 | 65 | 0.0 | 2.0 | 0.00 | 0.00 | 0.00 | 30 | 1010.9 |
| 20260509070809 | 75 | 65 | 0.0 | 2.0 | 0.00 | 0.00 | 0.00 | 29 | 1010.9 |
| 20260509070309 | 75 | 72 | 0.0 | 1.0 | 0.00 | 0.00 | 0.00 | 28 | 1010.8 |
| 20260509065809 | 75 | 72 | 0.0 | 2.0 | 0.00 | 0.00 | 0.00 | 28 | 1010.9 |
| 20260509065309 | 75 | 75 | 1.0 | 2.0 | 0.00 | 0.00 | 0.00 | 28 | 1010.9 |
| 20260509064308 | 76 | 85 | 0.0 | 0.0 | 0.00 | 0.00 | 0.00 | 28 | 1010.9 |
| 20260509063808 | 77 | 84 | 0.0 | 1.0 | 0.00 | 0.00 | 0.00 | 26 | 1011.0 |
| 20260509063308 | 77 | 85 | 0.0 | 1.0 | 0.00 | 0.00 | 0.00 | 25 | 1010.9 |
| 20260509062808 | 78 | 84 | 0.0 | 1.0 | 0.00 | 0.00 | 0.00 | 25 | 1011.0 |
| 20260509062308 | 77 | 84 | 0.0 | 1.0 | 0.00 | 0.00 | 0.00 | 26 | 1011.0 |
| 20260509061808 | 76 | 85 | 0.0 | 0.0 | 0.00 | 0.00 | 0.00 | 28 | 1010.9 |
| 20260509061307 | 75 | 85 | 0.0 | 1.0 | 0.00 | 0.00 | 0.00 | 28 | 1010.8 |
| 20260509060807 | 76 | 85 | 0.0 | 1.0 | 0.00 | 0.00 | 0.00 | 29 | 1011.0 |
| 20260509060307 | 75 | 85 | 0.0 | 0.0 | 0.00 | 0.00 | 0.00 | 30 | 1010.7 |
| 20260509055307 | 76 | 85 | 0.0 | 1.0 | 0.00 | 0.00 | 0.00 | 28 | 1010.7 |
| 20260509054807 | 77 | 85 | 0.0 | 1.0 | 0.00 | 0.00 | 0.00 | 28 | 1010.8 |
| 20260509053806 | 77 | 85 | 0.0 | 0.0 | 0.00 | 0.00 | 0.00 | 29 | 1010.9 |
| 20260509053306 | 77 | 84 | 0.0 | 1.0 | 0.00 | 0.00 | 0.00 | 29 | 1010.8 |
| 20260509052307 | 77 | 84 | 0.0 | 0.0 | 0.00 | 0.00 | 0.00 | 30 | 1010.8 |
| 20260509051806 | 77 | 84 | 0.0 | 2.0 | 0.00 | 0.00 | 0.00 | 27 | 1010.8 |
| 20260509051306 | 77 | 84 | 0.0 | 2.0 | 0.00 | 0.00 | 0.00 | 27 | 1010.9 |
| 20260509050805 | 76 | 115 | 0.0 | 1.0 | 0.00 | 0.00 | 0.00 | 29 | 1010.7 |
| 20260509050305 | 76 | 115 | 0.0 | 1.0 | 0.00 | 0.00 | 0.00 | 29 | 1010.6 |
| 20260509045805 | 76 | 134 | 0.0 | 1.0 | 0.00 | 0.00 | 0.00 | 29 | 1010.7 |
| 20260509045306 | 77 | 134 | 0.0 | 1.0 | 0.00 | 0.00 | 0.00 | 29 | 1010.5 |
| 20260509044805 | 77 | 134 | 0.0 | 0.0 | 0.00 | 0.00 | 0.00 | 28 | 1010.4 |
| 20260509044305 | 77 | 134 | 0.0 | 0.0 | 0.00 | 0.00 | 0.00 | 29 | 1010.4 |
| 20260509043805 | 77 | 134 | 0.0 | 0.0 | 0.00 | 0.00 | 0.00 | 28 | 1010.3 |
| 20260509043304 | 78 | 134 | 0.0 | 0.0 | 0.00 | 0.00 | 0.00 | 28 | 1010.3 |
| 20260509042805 | 78 | 134 | 0.0 | 1.0 | 0.00 | 0.00 | 0.00 | 26 | 1010.3 |
| 20260509042306 | 78 | 128 | 0.0 | 1.0 | 0.00 | 0.00 | 0.00 | 26 | 1010.3 |
| 20260509041804 | 78 | 128 | 0.0 | 1.0 | 0.00 | 0.00 | 0.00 | 27 | 1010.1 |
| 20260509041304 | 78 | 128 | 0.0 | 0.0 | 0.00 | 0.00 | 0.00 | 28 | 1010.1 |
| 20260509040804 | 78 | 128 | 0.0 | 1.0 | 0.00 | 0.00 | 0.00 | 26 | 1009.9 |
| 20260509040304 | 79 | 128 | 0.0 | 1.0 | 0.00 | 0.00 | 0.00 | 27 | 1009.8 |
| 20260509035803 | 79 | 128 | 0.0 | 0.0 | 0.00 | 0.00 | 0.00 | 27 | 1009.7 |
| 20260509034803 | 81 | 128 | 0.0 | 1.0 | 0.00 | 0.00 | 0.00 | 25 | 1009.7 |
| 20260509034303 | 81 | 128 | 0.0 | 1.0 | 0.00 | 0.00 | 0.00 | 24 | 1009.6 |
| 20260509033803 | 81 | 128 | 0.0 | 1.0 | 0.00 | 0.00 | 0.00 | 23 | 1009.6 |
| 20260509033303 | 81 | 129 | 0.0 | 0.0 | 0.00 | 0.00 | 0.00 | 24 | 1009.6 |
| 20260509032802 | 81 | 203 | 0.0 | 0.0 | 0.00 | 0.00 | 0.00 | 24 | 1009.5 |
| 20260509031302 | 82 | 284 | 0.0 | 0.0 | 0.00 | 0.00 | 0.00 | 23 | 1009.4 |
| 20260509030802 | 83 | 284 | 0.0 | 0.0 | 0.00 | 0.00 | 0.00 | 22 | 1009.4 |
| 20260509030302 | 84 | 284 | 0.0 | 1.0 | 0.00 | 0.00 | 0.00 | 21 | 1009.4 |
| 20260509025802 | 84 | 284 | 0.0 | 1.0 | 0.00 | 0.00 | 0.00 | 22 | 1009.4 |
| 20260509024802 | 85 | 283 | 0.0 | 0.0 | 0.00 | 0.00 | 0.00 | 21 | 1009.2 |
| 20260509024302 | 86 | 283 | 0.0 | 0.0 | 0.00 | 0.00 | 0.00 | 19 | 1009.2 |
| 20260509023801 | 88 | 283 | 0.0 | 0.0 | 0.00 | 0.00 | 0.00 | 20 | 1009.1 |
| 20260509023301 | 89 | 284 | 0.0 | 0.0 | 0.00 | 0.00 | 0.00 | 16 | 1009.2 |
| 20260509022801 | 90 | 283 | 0.0 | 1.0 | 0.00 | 0.00 | 0.00 | 16 | 1009.2 |
| 20260509022301 | 91 | 283 | 0.0 | 1.0 | 0.00 | 0.00 | 0.00 | 15 | 1009.3 |
| 20260509021801 | 91 | 283 | 1.0 | 2.0 | 0.00 | 0.00 | 0.00 | 15 | 1009.1 |
| 20260509021301 | 92 | 288 | 1.0 | 3.0 | 0.00 | 0.00 | 0.00 | 15 | 1009.0 |
| 20260509020300 | 93 | 266 | 0.0 | 5.0 | 0.00 | 0.00 | 0.00 | 14 | 1009.1 |
| 20260509015800 | 94 | 294 | 2.0 | 5.0 | 0.00 | 0.00 | 0.00 | 14 | 1009.2 |
| 20260509015300 | 94 | 309 | 2.0 | 5.0 | 0.00 | 0.00 | 0.00 | 14 | 1008.9 |
| 20260509014800 | 95 | 302 | 2.0 | 4.0 | 0.00 | 0.00 | 0.00 | 14 | 1009.0 |
| 20260509014300 | 95 | 259 | 1.0 | 4.0 | 0.00 | 0.00 | 0.00 | 14 | 1009.0 |
| 20260509013759 | 95 | 288 | 0.0 | 7.0 | 0.00 | 0.00 | 0.00 | 14 | 1009.0 |